Probability
0 0 0 0 0 0 0 0 0 0 0 0 1 2 3 3 3 4 5 6 6 6 4 4 6 7 8 9 7 5 5 5 3 2 1 0 0 0 0 1 2 3 3 3
0 0 0 0 0 0 0 0 0 0 0 0 1 3 3 3 3 3 4 5 6 6 4 4 5 6 8 8 7 6 4 4 2 1 0 0 0 0 0 0 1 2 3 3
0 0 0 0 0 0 0 0 0 0 0 0 2 3 3 3 3 3 3 4 6 6 4 3 4 5 6 8 8 6 5 3 1 0 0 0 0 0 0 0 0 1 2 2
0 0 0 0 0 0 0 0 0 0 0 0 1 2 3 3 3 3 3 3 5 5 4 3 3 4 5 7 8 7 6 4 1 0 0 0 0 0 0 0 0 0 1 1
0 0 0 0 0 0 0 0 0 0 0 0 0 1 1 2 2 2 2 1 2 4 4 3 3 3 4 6 6 7 8 6 2 0 0 0 0 0 0 0 0 0 0 0
0 0 0 0 0 0 0 0 0 0 0 0 0 0 0 1 1 0 0 0 0 2 3 3 3 3 4 5 5 7 8 6 2 0 0 0 0 0 0 0 0 0 0 0
0 0 0 0 0 0 0 0 0 0 0 0 0 0 0 0 0 0 0 0 0 1 2 3 3 3 4 5 5 6 7 4 1 0 0 0 0 0 0 0 0 0 0 0
0 0 0 0 0 0 0 0 0 0 0 0 0 0 0 0 0 0 0 0 1 1 2 2 2 2 3 5 6 6 5 3 1 0 0 0 0 0 0 0 0 0 0 0
0 0 0 0 0 0 0 0 0 0 0 0 0 0 0 0 0 0 0 0 0 0 1 1 1 1 2 4 6 5 4 3 1 1 0 0 0 0 0 0 0 0 0 0
0 0 0 0 0 0 0 0 0 0 0 0 0 0 0 0 0 0 0 0 0 0 0 0 0 0 1 3 4 4 3 2 2 1 0 0 0 0 0 0 0 0 0 0
0 0 0 0 0 0 0 0 0 0 0 0 0 0 0 0 0 0 0 0 0 0 0 0 0 0 0 1 2 3 2 1 1 1 0 0 0 0 0 0 0 0 0 0
0 0 0 0 0 0 0 0 0 0 0 0 0 0 0 0 0 0 0 0 0 0 0 0 0 0 0 0 1 2 2 1 0 0 0 0 0 0 0 0 0 0 0 0
0 0 0 0 0 0 0 0 0 0 0 0 0 0 0 0 0 0 0 0 0 0 0 0 0 0 0 0 0 1 1 0 0 0 0 0 0 0 0 0 0 0 0 0
0 0 0 0 0 0 0 0 0 0 0 0 0 0 0 0 0 0 0 0 0 0 0 0 0 0 0 0 0 0 0 0 0 0 0 0 0 0 0 0 0 0 0 0
0 0 0 0 0 0 0 0 0 0 0 0 0 0 0 0 0 0 0 0 0 0 0 0 0 0 0 0 0 0 0 0 0 0 0 0 0 0 0 0 0 0 0 0
0 0 0 0 0 0 0 0 0 0 0 0 0 0 0 0 0 0 0 0 0 0 0 0 0 0 0 0 0 0 0 0 0 0 0 0 0 0 0 0 0 0 0 0
0 0 0 0 0 0 0 0 0 0 0 0 0 0 0 0 0 0 0 0 0 0 0 0 0 0 0 0 0 0 0 0 0 0 0 0 0 0 0 0 0 0 0 0
0 0 0 0 0 0 0 0 0 0 0 0 0 0 0 0 0 0 0 0 0 0 0 0 0 0 0 0 0 0 0 0 0 0 0 0 0 0 0 0 0 0 0 0
0 0 0 0 0 0 0 0 0 0 0 0 0 0 0 0 0 0 0 0 0 0 0 0 0 0 0 0 0 0 0 0 0 0 0 0 0 0 0 0 0 0 0 0
0 0 0 0 0 0 0 0 0 0 0 0 0 0 0 0 0 0 0 0 0 0 0 0 0 0 0 0 0 0 0 0 0 0 0 0 0 0 0 0 0 0 0 0
0 0 0 0 0 0 0 0 0 0 0 0 0 0 0 0 0 0 0 0 0 0 0 0 0 0 0 0 0 0 0 0 0 0 0 0 0 0 0 0 0 0 0 0
0 0 0 0 0 0 0 0 0 0 0 0 0 0 0 0 0 0 0 0 0 0 0 0 0 0 0 0 0 0 0 0 0 0 0 0 0 0 0 0 0 0 0 0
0 0 0 0 0 0 0 0 0 0 0 0 0 0 0 0 0 0 0 0 0 0 0 0 0 0 0 0 0 0 0 0 0 0 0 0 0 0 0 0 0 0 0 0
0 0 0 0 0 0 0 0 0 0 0 0 0 0 0 0 0 0 0 0 0 0 0 0 0 0 0 0 0 0 0 0 0 0 0 0 0 0 0 0 0 0 0 0
0 0 0 0 0 0 0 0 0 0 0 0 0 0 0 0 0 0 0 0 0 0 0 0 0 0 0 0 0 0 0 0 0 0 0 0 0 0 0 0 0 0 0 0
0 0 0 0 0 0 0 0 0 0 0 0 0 0 0 0 0 0 0 0 0 0 0 0 0 0 0 0 0 0 0 0 0 0 0 0 0 0 0 0 0 0 0 0
Wind_Speed
2 4 1 2 2 2 2 1 3 4 3 1 1 2 4 3 2 1 1 1 0 1 1 2 1 2 2 2 2 2 2 1 1 1 1 1 1 1 1 1 2 2 1 1
4 1 3 2 1 1 1 1 2 3 2 2 1 2 3 2 0 1 1 1 0 2 2 2 1 2 2 2 2 2 1 1 1 1 1 1 1 0 1 1 1 1 1 1
2 3 2 0 1 1 1 2 2 3 4 2 2 2 3 3 2 2 1 1 1 0 1 2 1 1 1 0 2 2 2 2 1 1 1 1 2 2 2 1 1 1 1 1
1 2 1 1 1 1 3 2 2 1 1 2 1 2 3 2 3 3 2 1 1 1 1 1 1 1 0 1 0 2 2 2 1 2 2 3 2 1 0 0 1 1 2 2
2 2 1 0 2 1 2 3 2 1 1 1 2 1 5 2 3 4 2 2 1 1 1 1 1 1 1 1 0 1 1 1 2 2 2 2 2 1 1 1 2 2 2 2
2 1 1 1 2 1 0 2 3 3 3 1 1 2 5 2 3 3 3 2 2 3 2 2 1 1 1 2 1 1 1 1 2 2 2 2 3 2 2 2 2 1 2 2
4 3 2 1 3 3 3 4 4 4 3 3 1 1 5 4 2 2 2 2 3 3 2 1 1 2 1 1 2 0 1 1 2 2 2 2 2 3 3 2 1 1 1 1
2 4 3 2 0 1 1 2 3 2 3 3 2 3 5 2 2 2 2 2 2 2 2 2 1 1 1 1 1 1 1 2 2 2 2 2 2 2 1 2 1 1 0 1
1 4 3 3 1 2 1 0 2 3 1 1 3 5 6 3 5 4 4 4 3 2 2 3 2 1 1 1 1 1 1 2 2 2 2 1 2 2 2 1 1 1 1 1
2 2 4 3 2 2 1 2 3 2 1 2 3 4 4 4 4 3 4 4 4 4 4 4 2 2 2 1 1 1 1 2 2 2 2 1 1 1 2 1 1 1 1 1
1 1 3 3 0 2 1 1 2 2 2 2 3 6 3 3 3 2 3 4 4 3 3 3 3 3 2 1 1 1 1 0 1 2 2 2 1 1 1 1 1 1 0 0
1 3 2 4 3 1 2 2 3 3 2 2 2 7 3 1 2 1 3 4 3 3 3 3 3 3 3 2 2 1 1 0 1 2 2 1 1 1 1 1 1 1 0 0
2 3 2 5 4 2 1 1 1 2 2 3 3 7 3 3 3 3 3 4 4 4 5 4 3 3 3 3 2 2 1 1 1 1 2 1 1 1 1 1 1 1 1 0
3 3 5 6 6 3 4 4 2 2 3 4 6 8 7 5 4 4 3 3 3 3 4 4 4 4 4 3 3 2 2 1 0 1 2 1 1 1 1 1 0 1 1 0
3 2 3 5 5 4 5 6 4 5 6 6 7 7 9 6 5 3 3 3 3 4 5 4 4 4 5 4 3 3 2 1 0 1 1 1 1 1 1 1 1 0 0 0
2 2 1 4 4 4 6 7 6 7 6 6 6 9 6 3 2 2 2 3 3 4 5 4 4 4 4 4 4 3 2 2 0 1 1 0 0 1 1 1 1 0 0 1
2 3 1 4 4 3 7 7 7 5 5 6 8 8 3 3 3 4 3 3 3 4 4 4 4 4 4 4 3 3 3 1 0 0 0 0 0 0 1 1 1 1 1 0
4 3 2 1 2 5 7 2 4 5 6 5 5 4 4 5 4 4 2 2 3 3 4 4 4 4 4 4 3 2 2 1 0 0 0 0 0 0 0 0 0 1 1 1
4 5 2 1 3 8 7 3 3 4 6 4 5 4 3 2 3 4 2 1 3 3 3 3 3 4 4 3 3 2 2 1 1 1 1 1 0 0 0 0 1 1 1 1
3 3 3 2 3 7 6 3 1 2 6 4 4 4 2 1 3 6 3 2 2 2 2 3 3 3 3 4 2 1 1 1 1 2 2 1 1 1 1 1 1 1 1 1
1 1 3 4 5 10 6 1 3 2 7 4 3 4 4 5 6 4 2 2 2 2 2 2 2 2 3 3 2 1 1 2 2 2 1 1 0 1 1 0 0 0 0 1
7 6 6 5 5 10 3 4 6 7 3 2 3 3 4 4 3 2 2 2 1 2 2 2 2 3 3 3 1 1 2 3 2 1 1 1 0 0 0 1 0 0 0 1
8 8 7 9 9 5 4 5 4 2 3 3 3 3 3 3 3 3 3 2 2 2 2 2 2 3 3 3 2 2 3 2 1 1 1 1 1 1 1 1 0 0 1 0
5 3 3 6 8 6 5 4 3 3 4 4 3 3 3 3 4 3 3 2 2 2 2 2 1 2 3 3 2 2 2 1 1 1 1 1 1 1 1 1 0 0 0 0
6 5 4 7 7 5 5 6 5 4 3 2 2 3 3 3 4 3 3 3 3 2 2 1 1 2 3 3 3 3 2 1 1 0 1 1 1 1 1 1 1 1 1 2
7 8 8 8 7 6 6 5 4 4 4 4 2 2 2 3 3 3 3 2 2 2 1 1 1 2 2 2 2 3 2 1 0 0 0 0 0 0 0 0 2 3 2 3
Wind_Direction
48 66 58 247 222 205 202 221 277 276 293 340 259 282 306 332 50 56 359 63 47 316 312 359 41 88 102 117 124 127 120 119 110 122 128 110 83 68 56 46 45 50 49 65
44 5 257 248 253 150 180 240 294 298 314 317 286 321 317 4 109 175 180 189 253 327 348 345 38 74 90 119 139 135 138 142 143 175 184 166 144 104 79 49 44 37 39 36
138 254 272 115 41 35 288 199 249 275 329 19 70 346 355 350 14 50 60 59 9 314 310 318 360 39 65 99 172 165 174 162 162 152 107 80 61 41 30 22 32 10 23 21
358 311 12 84 349 70 282 245 248 266 352 310 44 289 305 316 357 10 12 11 354 341 347 336 335 353 343 288 184 170 170 166 158 145 139 135 132 126 260 255 59 23 26 28
315 330 18 17 296 249 242 274 273 263 109 19 5 145 289 334 325 308 302 308 303 301 287 293 289 309 345 353 74 142 159 150 137 137 149 144 136 113 91 75 60 34 19 13
300 304 298 260 306 231 217 7 27 44 70 19 246 167 275 252 248 281 281 294 308 306 303 281 295 18 30 14 26 77 144 126 116 121 133 137 135 120 108 74 69 25 8 5
342 337 342 15 27 16 47 71 36 12 17 260 270 182 251 248 242 240 258 274 286 294 292 312 351 359 353 354 352 346 164 135 128 135 138 140 150 144 147 138 133 65 360 348
11 314 327 356 58 196 330 108 138 190 226 282 326 237 256 272 318 343 342 319 306 318 322 299 279 252 248 311 339 325 189 157 154 158 157 151 148 147 153 152 150 157 287 298
160 280 318 323 331 127 107 187 189 138 156 270 269 284 299 339 360 1 354 348 331 319 316 310 308 284 261 277 285 288 210 174 168 170 153 151 156 152 141 141 120 94 360 335
158 266 303 318 14 8 137 164 88 102 158 261 281 274 268 292 301 327 331 321 321 335 336 333 321 297 272 268 291 308 261 181 175 170 168 158 166 155 139 137 112 64 359 346
118 165 307 355 276 249 27 59 108 122 162 177 262 269 250 247 285 291 293 303 311 318 322 324 322 322 315 310 312 327 333 201 171 173 167 158 163 147 130 136 136 129 282 332
123 126 277 274 270 228 180 196 149 152 235 201 218 268 295 281 316 329 314 314 322 323 323 323 326 341 339 323 311 303 297 260 202 179 154 155 144 128 131 154 158 165 177 320
130 114 13 337 334 349 328 260 190 151 148 190 203 262 304 343 339 330 319 320 331 342 343 342 341 341 327 316 310 306 288 269 241 175 152 148 146 144 162 180 165 163 147 172
104 134 182 213 242 241 271 273 241 159 192 225 230 252 282 293 300 310 319 320 332 345 346 344 343 340 331 319 310 313 296 278 240 153 149 154 167 178 183 179 172 171 160 138
106 177 232 259 266 249 253 259 238 218 216 216 243 246 259 258 255 266 292 318 335 343 339 332 332 331 333 330 325 324 326 322 345 129 145 177 178 163 142 142 171 156 143 355
96 171 246 288 272 257 273 268 245 239 235 240 255 264 261 274 262 276 299 311 316 323 324 325 329 327 324 324 324 325 321 317 344 155 180 186 132 141 154 173 158 134 324 320
148 145 158 272 301 324 276 241 218 226 223 210 233 248 258 277 264 256 257 268 283 305 315 317 316 315 311 313 321 315 303 318 355 243 198 156 151 187 205 175 145 190 241 268
155 140 160 261 11 248 250 240 209 223 245 236 245 250 235 248 267 269 234 231 278 298 303 309 312 314 310 308 317 322 330 12 7 305 348 286 182 202 229 130 219 255 248 249
160 150 150 172 243 275 287 259 197 208 267 243 235 256 282 322 327 290 247 250 264 274 289 298 301 303 312 317 319 335 351 13 15 332 304 287 234 202 194 215 248 256 247 261
84 113 141 172 217 249 258 259 220 109 279 253 225 242 261 14 291 272 263 291 289 291 304 310 315 323 327 322 330 359 333 350 325 301 289 268 217 192 206 226 237 264 259 266
136 142 185 206 237 262 254 217 108 175 259 274 226 220 215 224 240 261 272 282 274 299 307 321 325 321 314 316 341 0 340 304 302 315 318 307 242 220 209 196 261 319 333 355
181 180 194 178 219 255 210 143 190 228 270 274 250 231 231 253 271 264 255 263 285 312 317 328 328 322 323 326 348 348 314 305 327 355 19 359 325 297 88 96 20 17 54 37
205 196 192 198 220 250 205 213 231 226 254 261 248 253 230 248 262 268 263 258 262 274 290 304 308 316 327 335 342 316 308 325 2 45 35 360 13 25 55 95 63 29 62 56
243 200 203 251 259 258 256 254 255 244 245 258 252 242 225 240 249 257 259 261 266 278 279 296 306 307 317 327 329 313 321 1 64 57 17 19 44 23 18 27 28 64 165 248
219 188 213 252 267 283 258 236 239 248 255 261 271 248 229 222 240 242 246 251 254 271 277 268 262 279 299 320 328 330 338 25 63 41 26 21 22 30 14 359 335 286 237 236
199 188 191 229 226 218 247 236 224 233 242 241 247 264 251 219 226 232 236 244 248 260 268 274 273 284 300 317 322 329 341 1 56 348 348 341 334 355 8 346 339 337 325 319